Location: Pedholt
(56.0260°N, 10.2097°E)
Time: 20:28:17
(UTC+00:00)

Transit 2A Rocket - Pass Details

Date: 06 August 2021
Orbit: 586 x 917 km, 66.7° (Epoch: 27 September)

Event Time Altitude Azimuth Distance (km) Brightness Sun altitude
Rises 20:36:23 0° 315° (NW) 3,235 10.6 -9.3°
Reaches altitude 10° 20:38:45 10° 310° (NW) 2,356 9.1 -9.6°
Maximum altitude 20:44:01 51° 236° (WSW) 1,048 5.7 -10.0°
Enters shadow 20:49:24 11° 163° (SSE) 2,434 7.0 -10.5°
Drops below altitude 10° 20:49:40 10° 163° (SSE) 2,533 - -10.5°
Sets 20:52:18 0° 158° (SSE) 3,499 - -10.7°
